Athol, MA

3:33 PM EST on February 24, 2017 (GMT -0500)
Orange Municipal

Weather History for KORE - October, 2013

Change the Weather History Date:

Saturday, October 12, 2013

  Actual Average Record
Temperature  
Mean Temperature 48 °F -  
Max Temperature 57 °F 59 °F 75 °F (2001)
Min Temperature 39 °F 36 °F 25 °F (1996)
Degree Days  
Heating Degree Days 17    
Moisture  
Dew Point 46 °F    
Average Humidity 91    
Maximum Humidity 100    
Minimum Humidity 80    
Precipitation  
Precipitation 0.00 in - - ()
Sea Level Pressure  
Sea Level Pressure 30.29 in    
Wind  
Wind Speed 2 mph (NE)    
Max Wind Speed 9 mph    
Max Gust Speed -    
Visibility 8 miles    
Events      
Averages and records for this station are not official NWS values.
T = Trace of Precipitation, MM = Missing Value Source: NWS Daily Summary

Daily Weather History Graph

Daily Weather History Graph

Search for Another Location

Airport or City:

Trip Planner

Search our weather history database for the weather conditions in past years. The results will help you decide how hot, cold, wet, or windy it might be!

Date:

Astronomy

Oct. 12, 2013 Rise Set
Actual Time 6:58 AM EDT 6:11 PM EDT
Civil Twilight 6:30 AM EDT 6:39 PM EDT
Nautical Twilight 5:58 AM EDT 7:12 PM EDT
Astronomical Twilight 5:25 AM EDT 7:44 PM EDT
Moon 2:26 PM EDT (10/12) No Moon Set
Length of Visible Light 12h 09m
Length of Day
11h 12m
First Quarter, 58% of the Moon is Illuminated
Oct 12
First Quarter
Oct 18
Full
Oct 26
Last Quarter
Nov 3
New
Nov 10
First Quarter

Hourly Weather History & Observations

Time (EDT) Temp. Windchill Dew Point Humidity Pressure Visibility Wind Dir Wind Speed Gust Speed Precip Events Conditions
12:52 AM 44.1 °F - 42.1 °F 93% 30.17 in 10.0 mi Calm Calm - N/A   Clear
1:52 AM 43.0 °F 41.3 °F 41.0 °F 93% 30.18 in 8.0 mi NNW 3.5 mph - N/A   Clear
2:52 AM 41.0 °F - 39.9 °F 96% 30.19 in 10.0 mi Calm Calm - N/A   Clear
3:52 AM 41.0 °F - 39.0 °F 93% 30.20 in 10.0 mi Calm Calm - N/A   Clear
4:34 AM 39.2 °F - 39.2 °F 100% 30.20 in 1.8 mi Calm Calm - N/A   Clear
4:37 AM 39.2 °F - 39.2 °F 100% 30.20 in 1.0 mi Calm Calm - N/A   Clear
4:45 AM 39.2 °F - 39.2 °F 100% 30.20 in 1.5 mi Calm Calm - N/A   Clear
4:48 AM 39.2 °F - 39.2 °F 100% 30.20 in 3.0 mi Calm Calm - N/A   Clear
4:52 AM 39.9 °F - 39.0 °F 97% 30.21 in 9.0 mi Calm Calm - N/A   Clear
5:52 AM 39.0 °F - 37.9 °F 96% 30.23 in 4.0 mi Calm Calm - N/A   Clear
6:52 AM 39.0 °F - 37.9 °F 96% 30.24 in 10.0 mi Calm Calm - N/A   Clear
7:52 AM 43.0 °F - 41.0 °F 93% 30.27 in 10.0 mi Calm Calm - N/A   Clear
8:52 AM 51.1 °F - 46.9 °F 86% 30.29 in 10.0 mi Calm Calm - N/A   Clear
9:34 AM 57.2 °F - 51.8 °F 82% 30.29 in 10.0 mi ENE 8.1 mph - N/A   Mostly Cloudy
9:52 AM 55.9 °F - 51.1 °F 84% 30.31 in 10.0 mi ENE 6.9 mph - N/A   Overcast
10:52 AM 55.9 °F - 51.1 °F 84% 30.32 in 10.0 mi NE 8.1 mph - N/A   Overcast
11:52 AM 55.9 °F - 52.0 °F 87% 30.33 in 10.0 mi NNE 4.6 mph - N/A   Overcast
12:52 PM 57.0 °F - 53.1 °F 87% 30.33 in 10.0 mi ENE 5.8 mph - N/A   Overcast
1:52 PM 57.0 °F - 52.0 °F 83% 30.33 in 10.0 mi NE 6.9 mph - N/A   Overcast
2:52 PM 55.9 °F - 52.0 °F 87% 30.34 in 10.0 mi East 4.6 mph - N/A   Overcast
3:52 PM 55.9 °F - 51.1 °F 84% 30.34 in 10.0 mi NE 9.2 mph - N/A   Overcast
4:52 PM 55.9 °F - 51.1 °F 84% 30.35 in 10.0 mi NE 6.9 mph - N/A   Overcast
5:52 PM 54.0 °F - 52.0 °F 93% 30.36 in 4.0 mi NE 4.6 mph - N/A   Overcast
6:52 PM 54.0 °F - 51.1 °F 90% 30.37 in 10.0 mi NNE 3.5 mph - N/A   Overcast
7:27 PM 53.6 °F - 51.8 °F 94% 30.36 in 10.0 mi NNE 3.5 mph - N/A   Overcast
7:52 PM 54.0 °F - 51.1 °F 90% 30.38 in 10.0 mi NE 4.6 mph - N/A   Overcast
8:52 PM 53.1 °F - 51.1 °F 93% 30.38 in 10.0 mi Calm Calm - N/A   Overcast
9:52 PM 53.1 °F - 50.0 °F 89% 30.39 in 10.0 mi NE 3.5 mph - N/A   Overcast
10:52 PM 53.1 °F - 48.0 °F 83% 30.40 in 10.0 mi East 6.9 mph - N/A   Overcast
11:52 PM 53.1 °F - 46.9 °F 80% 30.40 in 10.0 mi Calm Calm - N/A   Overcast